Location: Nianha
(10.8000°N, 4.6333°W)
Time: 05:43:39
(UTC+00:00)

ATLAS CENTAUR R/B - Pass Details

Date: 14 November 2019
Orbit: 454 x 694 km, 64.6° (Epoch: 17 January)

Event Time Altitude Azimuth Distance (km) Brightness Sun altitude
Rises 04:29:07 0° 177° (S) 2,973 5.3 -25.4°
Reaches altitude 10° 04:31:45 10° 164° (SSE) 2,092 4.6 -24.8°
Maximum altitude 04:35:37 24° 110° (ESE) 1,387 4.1 -23.9°
Drops below altitude 10° 04:39:34 10° 56° (NE) 2,140 4.8 -23.0°
Sets 04:42:16 0° 43° (NE) 3,058 5.5 -22.3°
